Waarnemingen

Advertentie
Mijn weer
L9F, Nederland (6207): temperatuur & dauwpunt: 18.05.2017 04:00:00 - 24.05.2017 04:00:00 (CEST)L9F, Nederland (6207): windsnelheid & windstoten: 18.05.2017 04:00:00 - 24.05.2017 04:00:00 (CEST)L9F, Nederland (6207): windrichting: 18.05.2017 04:00:00 - 24.05.2017 04:00:00 (CEST)L9F, Nederland (6207): luchtdruk: 18.05.2017 04:00:00 - 24.05.2017 04:00:00 (CEST)L9F, Nederland (6207): zicht: 18.05.2017 04:00:00 - 24.05.2017 04:00:00 (CEST)
Datum & Tijd tt [°C] td [°C] ff [km/u] ff [kn] fx [km/u] fx [kn] dd ppp [hPa] vv [km]
24.05.2017 04:00:00 12,5 8,4 21 11 18 10 WNW 1022,5 10
24.05.2017 03:00:00 12,4 8,6 22 12 22 12 W 1022,3 10
24.05.2017 02:00:00 12,1 9,0 21 11 18 10 W 1022,3 10
24.05.2017 01:00:00 11,9 9,6 18 10 18 10 W 1022,4 10
24.05.2017 00:00:00 12,0 9,4 16 9 22 12 W 1022,5 10
23.05.2017 23:00:00 12,2 8,5 22 12 25 14 WNW 1022,5 10
23.05.2017 22:00:00 12,2 8,7 24 13 - - WNW 1022,0 10
23.05.2017 21:00:00 12,1 9,4 26 14 29 16 WNW 1021,3 10
23.05.2017 20:00:00 12,2 9,4 22 12 25 14 WNW 1021,2 10
23.05.2017 19:00:00 12,2 8,9 28 15 29 16 WNW 1020,9 10
23.05.2017 18:00:00 12,1 9,0 29 16 29 16 WNW 1020,7 10
23.05.2017 17:00:00 12,0 8,8 34 18 32 18 WNW 1020,2 10
23.05.2017 16:00:00 11,9 8,9 34 18 40 21 WNW 1019,9 10
23.05.2017 15:00:00 12,2 8,9 35 19 40 21 WNW 1019,2 10
23.05.2017 14:00:00 12,1 9,1 37 20 40 21 WNW 1018,2 10
23.05.2017 13:00:00 12,2 9,9 35 19 43 23 WNW 1017,6 10
23.05.2017 12:00:00 12,3 10,7 44 24 47 25 WNW 1016,9 10
23.05.2017 11:00:00 12,6 11,0 42 23 47 25 WNW 1015,8 10
23.05.2017 10:00:00 12,8 11,1 41 22 40 21 WNW 1014,8 10
23.05.2017 09:00:00 13,1 10,9 29 16 29 16 WNW 1014,3 10
23.05.2017 08:00:00 13,7 10,4 24 13 32 18 W 1013,8 10
23.05.2017 07:00:00 15,6 9,2 41 22 40 21 WZW 1013,4 10
23.05.2017 06:00:00 16,2 9,5 29 16 29 16 WZW 1013,3 10
23.05.2017 05:00:00 17,8 9,4 29 16 25 14 WZW 1013,2 10
23.05.2017 04:00:00 17,6 12,1 29 16 29 16 ZW 1013,1 10
23.05.2017 03:00:00 17,8 12,4 29 16 29 16 ZZW 1013,6 10
23.05.2017 02:00:00 17,7 13,0 31 17 29 16 Z 1014,0 10
23.05.2017 01:00:00 17,1 14,0 24 13 25 14 ZZO 1014,3 10
23.05.2017 00:00:00 15,0 11,9 24 13 25 14 ZO 1014,8 10
22.05.2017 23:00:00 14,6 10,9 29 16 32 18 ZO 1014,9 10
22.05.2017 22:00:00 14,8 10,4 35 19 40 21 OZO 1015,5 10
22.05.2017 21:00:00 15,9 10,4 44 24 43 23 O 1015,8 10
22.05.2017 20:00:00 16,2 10,9 41 22 40 21 O 1016,3 10
22.05.2017 19:00:00 16,1 10,7 41 22 36 19 O 1016,6 10
22.05.2017 18:00:00 15,9 11,3 34 18 32 18 O 1017,1 10
22.05.2017 17:00:00 15,7 11,4 31 17 32 18 O 1017,6 10
22.05.2017 16:00:00 15,8 11,0 26 14 25 14 O 1018,5 10
22.05.2017 15:00:00 16,3 11,3 22 12 22 12 O 1019,1 10
22.05.2017 14:00:00 16,7 11,6 15 8 18 10 O 1019,4 10
22.05.2017 13:00:00 14,4 11,2 13 7 14 8 OZO 1019,9 10
22.05.2017 12:00:00 14,3 10,6 15 8 14 8 ZO 1020,4 10
22.05.2017 11:00:00 13,6 10,7 18 10 18 10 ZZO 1020,8 10
22.05.2017 10:00:00 13,3 10,3 22 12 22 12 ZO 1021,0 10
22.05.2017 09:00:00 13,4 10,1 26 14 25 14 ZO 1021,1 10
22.05.2017 08:00:00 13,4 9,3 28 15 25 14 ZO 1021,4 10
22.05.2017 07:00:00 13,4 9,3 28 15 25 14 ZO 1021,8 10
22.05.2017 06:00:00 12,9 9,4 24 13 25 14 ZO 1022,0 10
22.05.2017 05:00:00 13,0 9,9 26 14 25 14 ZO 1022,4 10
22.05.2017 04:00:00 12,9 9,9 26 14 25 14 ZO 1022,8 10
22.05.2017 03:00:00 12,8 10,8 24 13 22 12 ZO 1023,3 10
22.05.2017 02:00:00 12,7 10,4 24 13 22 12 ZO 1023,7 10
22.05.2017 01:00:00 12,5 10,3 18 10 18 10 ZO 1024,1 10
22.05.2017 00:00:00 12,3 10,3 16 9 14 8 OZO 1024,4 10
21.05.2017 23:00:00 12,5 10,5 15 8 18 10 O 1024,7 10
21.05.2017 22:00:00 12,2 9,9 2 1 7 4 - 1024,8 10
21.05.2017 21:00:00 12,6 9,9 5 3 7 4 ZO 1024,9 10
21.05.2017 20:00:00 13,3 9,9 5 3 7 4 ZW 1025,3 10
21.05.2017 19:00:00 12,9 9,7 9 5 11 6 ZZW 1025,6 10
21.05.2017 18:00:00 12,9 9,9 11 6 11 6 ZZW 1026,0 10
21.05.2017 17:00:00 13,1 10,3 11 6 14 8 ZW 1026,4 10
21.05.2017 16:00:00 12,8 10,1 15 8 18 10 ZW 1026,6 10
21.05.2017 15:00:00 12,3 9,9 18 10 22 12 ZW 1026,8 10
21.05.2017 14:00:00 12,0 9,8 22 12 25 14 ZW 1026,8 10
21.05.2017 13:00:00 12,0 9,9 21 11 29 16 ZW 1026,8 10
21.05.2017 12:00:00 12,0 10,1 28 15 32 18 ZW 1026,8 10
21.05.2017 11:00:00 11,9 10,0 34 18 32 18 ZW 1026,2 10
21.05.2017 10:00:00 11,9 9,8 35 19 36 19 ZW 1025,9 10
21.05.2017 09:00:00 11,9 9,8 35 19 36 19 ZW 1025,3 10
21.05.2017 08:00:00 12,0 9,7 37 20 36 19 ZW 1024,7 10
21.05.2017 07:00:00 12,0 9,5 37 20 36 19 ZW 1024,5 10
21.05.2017 06:00:00 12,2 9,2 37 20 36 19 ZW 1024,2 10
21.05.2017 05:00:00 12,2 9,3 39 21 40 21 ZW 1024,0 10
21.05.2017 04:00:00 12,4 9,0 37 20 40 21 ZZW 1023,9 10
21.05.2017 03:00:00 12,8 8,3 42 23 43 23 ZZW 1024,0 10
21.05.2017 02:00:00 12,9 8,1 44 24 43 23 ZZW 1023,7 10
21.05.2017 01:00:00 12,9 8,2 41 22 43 23 ZZW 1023,7 10
21.05.2017 00:00:00 13,0 7,7 42 23 43 23 ZZW 1023,4 10
20.05.2017 23:00:00 12,9 7,8 42 23 43 23 ZZW 1023,2 10
20.05.2017 22:00:00 12,8 8,1 39 21 36 19 ZZW 1022,9 10
20.05.2017 21:00:00 12,8 8,4 39 21 36 19 ZZW 1022,5 10
20.05.2017 20:00:00 12,6 8,7 35 19 32 18 ZZW 1022,2 10
20.05.2017 19:00:00 12,5 9,3 35 19 36 19 ZZW 1021,6 10
20.05.2017 18:00:00 12,3 9,7 34 18 32 18 ZZW 1021,4 10
20.05.2017 17:00:00 12,2 9,3 35 19 36 19 ZZW 1021,0 10
20.05.2017 16:00:00 12,3 8,9 35 19 32 18 ZZW 1020,5 10
20.05.2017 15:00:00 12,1 9,4 37 20 36 19 ZW 1020,1 10
20.05.2017 14:00:00 12,1 9,3 37 20 40 21 ZW 1019,3 10
20.05.2017 13:00:00 11,9 9,4 37 20 36 19 ZW 1019,0 10
20.05.2017 12:00:00 11,9 9,5 31 17 32 18 ZW 1018,3 10
20.05.2017 11:00:00 11,9 10,0 34 18 32 18 ZW 1017,5 10
20.05.2017 10:00:00 11,9 10,0 31 17 36 19 ZZW 1016,9 10
20.05.2017 09:00:00 11,7 9,0 29 16 29 16 ZW 1016,1 10
20.05.2017 08:00:00 11,5 9,5 28 15 29 16 ZW 1015,4 10
20.05.2017 07:00:00 11,2 8,9 26 14 32 18 ZW 1014,8 10
20.05.2017 06:00:00 11,1 9,1 34 18 32 18 ZW 1014,0 10
20.05.2017 05:00:00 11,2 8,8 29 16 29 16 ZW 1013,7 10
20.05.2017 04:00:00 11,1 8,9 26 14 29 16 ZW 1013,7 10
20.05.2017 03:00:00 11,0 9,0 24 13 29 16 ZW 1013,4 10
20.05.2017 02:00:00 11,0 8,3 24 13 32 18 ZW 1013,6 10
20.05.2017 01:00:00 10,8 8,1 28 15 29 16 WZW 1013,1 10
20.05.2017 00:00:00 10,8 7,9 31 17 32 18 WZW 1013,2 10
19.05.2017 23:00:00 10,9 8,4 31 17 36 19 WZW 1012,5 10
19.05.2017 22:00:00 11,1 8,0 28 15 40 21 ZW 1012,0 10
19.05.2017 21:00:00 11,1 8,5 39 21 43 23 ZW 1011,5 10
19.05.2017 20:00:00 11,2 8,5 41 22 47 25 ZW 1011,0 10
19.05.2017 19:00:00 11,2 8,7 50 27 50 27 ZW 1010,4 10
19.05.2017 18:00:00 11,3 8,6 48 26 54 29 ZW 1009,8 10
19.05.2017 17:00:00 11,3 9,0 57 31 61 33 ZW 1009,0 10
19.05.2017 16:00:00 11,5 9,2 59 32 61 33 ZW 1008,7 10
19.05.2017 15:00:00 11,6 9,4 61 33 68 37 ZZW 1008,5 10
19.05.2017 14:00:00 11,7 9,2 67 36 72 39 ZZW 1007,9 10
19.05.2017 13:00:00 11,8 9,4 67 36 72 39 ZZW 1007,5 10
19.05.2017 12:00:00 11,9 9,0 70 38 72 39 Z 1007,0 10
19.05.2017 11:00:00 12,6 9,6 55 30 61 33 Z 1006,7 10
19.05.2017 10:00:00 13,3 10,6 48 26 50 27 Z 1006,1 10
19.05.2017 09:00:00 13,3 12,7 39 21 40 21 ZO 1005,4 3,7
19.05.2017 08:00:00 12,4 11,8 44 24 50 27 OZO 1005,2 4,9
19.05.2017 07:00:00 11,8 11,1 54 29 54 29 O 1005,5 7
19.05.2017 06:00:00 11,6 10,7 54 29 58 31 O 1005,7 10
19.05.2017 05:00:00 11,5 10,4 55 30 58 31 O 1006,1 10
19.05.2017 04:00:00 11,1 10,2 50 27 50 27 O 1007,7 10
19.05.2017 03:00:00 11,2 10,3 48 26 47 25 O 1008,4 10
19.05.2017 02:00:00 10,7 10,1 42 23 40 21 O 1009,8 3,0
19.05.2017 01:00:00 10,8 10,1 41 22 40 21 ONO 1010,5 2,2
19.05.2017 00:00:00 10,4 10,2 35 19 36 19 ONO 1011,2 1,0
18.05.2017 23:00:00 9,7 9,6 34 18 32 18 ONO 1011,7 0,8
18.05.2017 22:00:00 10,1 9,5 24 13 29 16 ONO 1012,2 10
18.05.2017 21:00:00 10,9 9,8 21 11 22 12 ONO 1012,3 10
18.05.2017 20:00:00 10,9 10,0 15 8 18 10 ONO 1012,9 10
18.05.2017 19:00:00 10,3 9,8 13 7 14 8 NO 1013,3 3,7
18.05.2017 18:00:00 10,4 9,8 8 4 11 6 N 1013,8 10
18.05.2017 17:00:00 10,9 9,9 11 6 14 8 NO 1013,5 10
18.05.2017 16:00:00 11,1 10,3 9 5 14 8 N 1013,7 10
18.05.2017 15:00:00 11,0 10,3 11 6 18 10 NW 1013,7 10
18.05.2017 14:00:00 11,0 10,6 16 9 18 10 WNW 1013,4 10
18.05.2017 13:00:00 10,7 10,6 16 9 22 12 - 1012,9 0,2
18.05.2017 12:00:00 10,6 10,5 21 11 25 14 WNW 1012,6 0,3
18.05.2017 11:00:00 10,7 10,4 28 15 29 16 WNW 1012,1 5
18.05.2017 10:00:00 10,7 10,4 34 18 36 19 WNW 1011,3 1,4
18.05.2017 09:00:00 11,1 10,7 39 21 40 21 WNW 1010,5 10
18.05.2017 08:00:00 11,3 10,8 29 16 32 18 - 1009,5 10
18.05.2017 07:00:00 11,5 11,0 24 13 32 18 - 1008,4 10
18.05.2017 06:00:00 11,7 11,0 26 14 29 16 WNW 1007,7 7
18.05.2017 05:00:00 12,1 11,0 26 14 36 19 NNW 1006,9 9
18.05.2017 04:00:00 12,1 11,1 35 19 36 19 NW 1006,2 5

tt = temperatuur
td = dauwpunt
ff = windsnelheid
fx = windstoten
dd = windrichting
ppp = luchtdruk
vv = zicht

Weerstations in de omgeving